Regional Weather Roundup
Issued by NWS

Home | Current Version | Previous Version | Graphics & Text | Print | Product List | Glossary Off
Versions: 1 2 3 4 5 6 7 8 9 10 11 12 13 14 15 16 17 18 19 20 21 22 23 24 25 26 27 28 29 30 31 32 33 34 35 36 37 38 39 40 41 42 43 44 45 46 47 48 49 50

000
ASUS43 KLSX 230307
RWRMO

WEATHER SUMMARY FOR MISSOURI
NATIONAL WEATHER SERVICE SPRINGFIELD MO
1000 PM CDT SUN APR 22 2018

NOTE: "FAIR" INDICATES FEW OR NO CLOUDS BELOW 12,000 FEET WITH NO
       SIGNIFICANT WEATHER AND/OR OBSTRUCTIONS TO VISIBILITY.
       CURRENT SKY AND/OR WEATHER CONDITIONS ARE NOT AVAILABLE FOR
       CHILLICOTHE AND FARMINGTON.

MOZ001>031-035>038-043-044-053-054-230400-
...NORTHERN AND WESTERN MISSOURI...

CITY           SKY/WX    TMP DP  RH WIND       PRES   REMARKS
KANSAS CTY INT CLOUDY    61  41  47 NE10      30.11R
KANSAS C DTWN  CLOUDY    64  41  42 NE8       30.09R
LEE`S SUMMIT   MOCLDY    58  41  53 NE8       30.09R
ST JOSEPH      CLOUDY    61  42  49 E7        30.12R
CHILLICOTHE      N/A     59  38  45 N5        30.13R
KIRKSVILLE     CLOUDY    56  28  34 NE12      30.13S

$$
MOZ066>068-077>081-088>096-101>105-230400-
...SOUTHWEST MISSOURI...

CITY           SKY/WX    TMP DP  RH WIND       PRES   REMARKS
SPRINGFIELD    CLOUDY    52  49  89 NE14      29.98R
JOPLIN         CLOUDY    55  51  86 NE9       30.01R
BRANSON        CLOUDY    50  50 100 N9        29.96S

$$
MOZ032>034-039>042-045>050-055>058-069>072-230400-
...CENTRAL MISSOURI...

CITY           SKY/WX    TMP DP  RH WIND       PRES   REMARKS
COLUMBIA       CLOUDY    57  42  57 NE16      30.05F
JEFFERSON CITY CLOUDY    57  44  62 NE10G21   30.04S
ROLLA          CLOUDY    52  45  77 NE12      30.01S
SEDALIA        CLOUDY    59  40  49 E9        30.08R
WHITEMAN AFB   CLOUDY    57  38  49 NE8       30.03R
WARRENSBURG    CLOUDY    55  37  50 NE6       30.08R
OSAGE BEACH    CLOUDY    49  47  93 NE5       30.03R

$$
MOZ051-052-059>065-230400-
...EAST CENTRAL MISSOURI...

CITY           SKY/WX    TMP DP  RH WIND       PRES   REMARKS
ST LOUIS INTL  LGT RAIN  60  50  69 E16       30.06R
SPIRIT OF STL  CLOUDY    57  48  72 E7        30.04S
ST CHARLES     CLOUDY    60  46  59 E13       30.06R

$$
MOZ072>076-082>087-097>100-106>115-230400-
...SOUTH CENTRAL AND SOUTHEAST MISSOURI...

CITY           SKY/WX    TMP DP  RH WIND       PRES   REMARKS
CAPE GIRARDEAU LGT RAIN  59  56  89 E13       29.94S
FARMINGTON     LGT RAIN  56  55  97 NE12      29.98S
POPLAR BLUFF   CLOUDY    59  57  93 NE10      29.91F
WEST PLAINS    LGT RAIN  53  51  93 NE9       29.94R

$$




USA.gov is the U.S. government's official web portal to all federal, state and local government web resources and services.